UFO 10 (USA 146)

Last updated on Sun Jun 21 2026 00:03:03 GMT+0000 (Coordinated Universal Time)

1 25967U 99063A 26171.38747713 -.00000198 00000+0 00000+0 0 9990 2 25967 9.8747 27.1851 0001926 45.2927 312.6649 1.00270301 97378
UTC large
Height (km)
Speed (km/s)
/
Latitude / Longitude
Inclination (degrees)
Orbital Period (minutes)
Azimuth
Elevation
Range (km)
Doppler Factor

Next 0 passes for location: London (51.5072 / 0.1276)

No passes found over London.
UFO 10 (USA 146)